Regional Weather Roundup
Issued by NWS

Home | Current Version | Previous Version | Graphics & Text | Print | Product List | Glossary On
Versions: 1 2 3 4 5 6 7 8 9 10 11 12 13 14 15 16 17 18 19 20 21 22 23 24 25 26 27 28 29 30 31 32 33 34 35 36 37 38 39 40 41 42 43 44 45 46 47 48 49 50
000
ASUS43 KTOP 270808
RWRKS

WEATHER ROUNDUP FOR KANSAS
NATIONAL WEATHER SERVICE GOODLAND KS
300 AM CDT MON MAR 27 2017

NOTE:  "FAIR" INDICATES FEW OR NO CLOUDS BELOW 12,000 FEET WITH NO
SIGNIFICANT WEATHER AND/OR OBSTRUCTIONS TO VISIBILITY.

KSZ001>006-013>018-027>032-041>047-270900-
NORTHWEST KANSAS

CITY           SKY/WX    TMP DP  RH WIND       PRES   REMARKS
GOODLAND       CLEAR     36  35  96 W12       29.93S WCI  28
HAYS             N/A     46  44  93 N6        29.94R
HILL CITY      CLEAR     41  40  96 E3        29.94R
RUSSELL        CLOUDY    46  44  93 N8        29.91R
$$

KSZ061>065-074>080-084>089-270900-
SOUTHWEST KANSAS

CITY           SKY/WX    TMP DP  RH WIND       PRES   REMARKS
DODGE CITY     MOCLDY    40  39  97 NW8       29.92R FOG
ELKHART          N/A     35  28  75 NW7         N/A
GARDEN CITY    CLEAR     37  35  92 NW10      29.94R WCI  30
GREAT BEND     CLOUDY    46  45  96 N10       29.91S
LIBERAL        CLEAR     39  34  81 NW9       29.94F
PRATT          CLOUDY    44  42  95 N12       29.90S
$$

KSZ066>073-081>083-090>101-270900-
SOUTHEAST KANSAS

CITY           SKY/WX    TMP DP  RH WIND       PRES   REMARKS
CHANUTE        LGT RAIN  53  50  89 SE6       29.76R
COFFEYVILLE    TSTM      53  52  96 N8        29.78R
HUTCHINSON     CLOUDY    47  46  97 N13       29.87S
MEDICINE LODGE   N/A     47  45  93 N12       29.87F
NEWTON         LGT RAIN  46  45  96 N12       29.87R
PARSONS        LGT RAIN  54  52  93 E6        29.76R
WICHITA INTL   LGT RAIN  48  47  96 N15       29.84S
WICHITA JABRA  CLOUDY    48  47  96 N14       29.85R
WICHITA MCCONL CLOUDY    48  46  93 N14       29.83S
WINFIELD       CLOUDY    50  48  93 N14       29.82R
$$

KSZ007>012-019>026-033>040-048>060-102>105-270900-
NORTHEAST KANSAS

CITY           SKY/WX    TMP DP  RH WIND       PRES   REMARKS
CONCORDIA      LGT RAIN  45  45 100 N5        29.92S FOG
EMPORIA        CLOUDY    47  47 100 N12       29.83R FOG
LAWRENCE       CLOUDY    47  46  97 NE10      29.83R
MANHATTAN      CLOUDY    47  44  90 N8        29.88S
MARYSVILLE     CLOUDY    45  43  93 N5        29.90S FOG
OLATHE IND     CLOUDY    47  46  97 NE12      29.81F
OLATHE EXE     CLOUDY    46  46 100 NE15      29.79F
SALINA         LGT RAIN  48  47  96 N9        29.90S FOG
TOPEKA BILLARD CLOUDY    47  47 100 N6        29.85R
TOPEKA FORBES  CLOUDY    48  46  93 N6        29.84R
$$




USA.gov is the U.S. government's official web portal to all federal, state and local government web resources and services.